{"data":{"norad_id":60500,"intl_designator":"2024-149AJ","name":"NUSAT-49 (KLARA DAN VO*)","alt_names":[],"object_type":"PAYLOAD","status":"ACTIVE","operator":null,"country":"ARGN","launch_date":"2024-08-16","launch_site_code":"AFWTR","launch_vehicle":null,"mission":null,"orbit_class":"UNKNOWN","rcs_meters":null,"size_class":null,"mass_kg":null,"dimensions":null,"purposes":[],"wikipedia_slug":null,"has_3d_model":false,"image_url":null,"decayed_at":null,"tle_current":{"epoch":"2026-05-25T04:18:45.815616Z","epoch_age_seconds":66449,"freshness":"FRESH","line1":"1 60500U 24149AJ  26145.17969694  .00008989  00000+0  31154-3 0  9990","line2":"2 60500  97.3775 226.6243 0003022  58.8407 301.3130 15.30053826 98613","mean_motion":15.30053826,"eccentricity":0.0003022,"inclination_deg":97.3775,"raan_deg":226.6243,"arg_perigee_deg":58.8407,"mean_anomaly_deg":301.313,"bstar":0.00031154,"rev_number":9861,"period_min":94.114336079573,"perigee_km":473.58033848097,"apogee_km":477.72276828263,"semimajor_km":6853.7885533818,"source":"CELESTRAK","updated_at":"2026-05-25T13:38:02.118306Z"}}}